Orbital Elements at Epoch 2459200.5 (2020-Dec-17.0) TDB
Reference: JPL 16 (heliocentric ecliptic J2000)
Element | Value | Uncertainty (1-sigma) | Units |
e | .01301814728349809 | 4.708e-08 | |
a | 3.004137341080447 | 2.1617e-08 | au |
q | 2.965029038714405 | 1.4197e-07 | au |
i | .7859775388322765 | 6.9467e-06 | deg |
node | 183.5960989686817 | 0.00029245 | deg |
peri | 122.1511958911645 | 0.00038697 | deg |
M | 136.1631721447962 | 0.00025288 | deg |
tp | 2458481.158258642076 (2018-Dec-28.65825864) | 0.0013377 | TDB |
period | 1901.858063452508 5.21 | 2.0528e-05 5.62e-08 | d yr |
n | .1892885735891771 | 2.0431e-09 | deg/d |
Q | 3.043245643446488 | 2.1898e-08 | au |
|
| | Orbit Determination Parameters
Additional Information
|